Погода в Иваньковском

Россия / Ивановская область     56°40′30″N   40°06′35″E
темп.,
°C
ветер,
м/с
пор.,
м/с
влажн.,
%
обл.,
%
осадки,
мм/ч
давл.,
гПа
погр.,
м
24 мая, вт
вт2400:00+3зсз1177100 0.0 100313
03:00+2ссз2696100 0.1 1004341
06:00+1сз26100100 2.0 1004235
09:00+2сз3799100 4.4 1004307
12:00+3ссз359393 0.6 1006570
15:00+5ссз4582100 1.5 10081178
18:00+5ссз4688100 0.8 1009854
21:00+3ссз399598 1.1 1011362
25 мая, ср
ср2500:000ссз389818 0.0 1012178
03:00−2сз269928 0.0 1014126
06:00+1ссз359646 0.0 1015216
09:00+5ссз358397 0.1 1015899
12:00+6ссз3576100 0.1 1015921
15:00+7сз3467100 0.2 10151001
18:00+9зсз136077 0.0 1014786
21:00+4ююз228472 0.0 101435
26 мая, чт
чт2600:00+2зюз249099 0.0 101461
03:00+3з239078 0.0 101347
06:00+5зюз248697 0.0 1011159
09:00+9зюз3473100 0.0 1010661
12:00+12зюз3563100 0.0 10081182
15:00+17з3548100 0.0 10051669
18:00+11зюз2696100 3.0 1004182
21:00+10ююз3998100 4.6 1002373
27 мая, пт
пт2700:00+10ююз4998100 2.7 1000444
03:00+8зюз31097100 4.4 998379
06:00+9юз412956 0.1 997500
09:00+12зюз61087100 0.2 9971014
12:00+12з6117954 0.3 9981224
15:00+11з598099 0.6 1001756
18:00+13зсз49716 0.0 10021181
21:00+8ююз239574 0.1 100363
28 мая, сб
сб2800:00+8ю3891100 0.0 1002154
03:00+8ю2793100 0.6 1000197
06:00+9ююв71598100 2.6 9951025
09:00+11зюз71489100 3.7 9941219
12:00+13зюз814695 0.8 9981655
15:00+15зюз713513 1.1 10002094
18:00+14зюз5125868 0.1 10021982
21:00+9юз3117887 0.1 1004440